Starlink 4750

operational
NORAD ID: 53841 Int'l Des: 2022-114 Owner: SPXS Country: US Constellation: starlink
LEOCIRCULAR

Starlink 4750について

説明を読み込み中...

リアルタイム位置

3D地球を読み込み中...

次回通過

高度履歴

Altitude vs Time

uPlot chart will show altitude changes over time

軌道要素

1 53841U 22114Z 25308.52142409 .00001752 00000-0 12808-3 0 9993
2 53841 53.2158 136.1522 0001328 84.4143 275.7000 15.08850054174071
Epoch: Nov 4, 2025 • Age: 6 hours

現在のステータス

高度 540.8 km
速度 7.59 km/s
衛星直下点 -1.57°S, 166.56°E
打ち上げ日 Sep 19, 2022
運用期間 3.1 years
タイプ internet

技術仕様

分類 Payload
質量 305.00 kg
乾燥質量 290.00 kg
総質量 305.00 kg
長さ 0.20 m
直径 2.80 m
スパン 9.00 m
形状 Box + pan
製造者 SPXS
バスタイプ Starlink
フェーズステータス In Orbit
所有者/国 SPXS/US

大規模コンステレーション

Loading constellations...